www.pogodaiklimat.ru
ПОГОДА в Дехканабаде

Архив погоды в Дехканабаде (Сырдарьинская область, Узбекистан)

Время
и дата
05:20 28.05
05:30 28.05
05:50 28.05
06:00 28.05
06:10 28.05
06:20 28.05
06:30 28.05
06:40 28.05
06:50 28.05
07:00 28.05
07:10 28.05
07:20 28.05
07:30 28.05
07:40 28.05
07:50 28.05
08:00 28.05
08:10 28.05
08:20 28.05
08:30 28.05
08:40 28.05
08:50 28.05
09:00 28.05
09:10 28.05
09:20 28.05
09:30 28.05
09:40 28.05
09:50 28.05
10:00 28.05
10:10 28.05
10:20 28.05
10:30 28.05
10:40 28.05
10:50 28.05
11:00 28.05
11:10 28.05
11:20 28.05
11:30 28.05
11:40 28.05
11:50 28.05
12:00 28.05
12:10 28.05
12:20 28.05
12:30 28.05
13:00 28.05
13:10 28.05
13:20 28.05
13:30 28.05
13:40 28.05
13:50 28.05
14:00 28.05
14:20 28.05
14:30 28.05
14:40 28.05
14:50 28.05
15:00 28.05
15:10 28.05
15:20 28.05
15:30 28.05
15:40 28.05
15:50 28.05
16:00 28.05
16:10 28.05
16:20 28.05
16:30 28.05
16:40 28.05
16:50 28.05
17:00 28.05
17:10 28.05
17:20 28.05
17:40 28.05
17:50 28.05
18:00 28.05
18:10 28.05
18:20 28.05
18:30 28.05
18:40 28.05
18:50 28.05
19:00 28.05
19:10 28.05
19:20 28.05
19:30 28.05
19:40 28.05
19:50 28.05
20:10 28.05
20:20 28.05
20:30 28.05
20:40 28.05
20:50 28.05
21:00 28.05
21:10 28.05
21:20 28.05
21:30 28.05
21:40 28.05
21:50 28.05
22:10 28.05
22:20 28.05
22:30 28.05
22:40 28.05
22:50 28.05
23:00 28.05
23:10 28.05
23:20 28.05
23:30 28.05
23:50 28.05
00:00 29.05
00:10 29.05
00:20 29.05
00:30 29.05
00:40 29.05
01:00 29.05
01:10 29.05
01:20 29.05
01:30 29.05
01:40 29.05
01:50 29.05
02:00 29.05
02:10 29.05
02:20 29.05
02:30 29.05
02:40 29.05
02:50 29.05
03:00 29.05
03:10 29.05
03:20 29.05
03:30 29.05
03:40 29.05
03:50 29.05
04:00 29.05
04:10 29.05
04:20 29.05
04:30 29.05
04:40 29.05
04:50 29.05
05:00 29.05
05:40 29.05
05:50 29.05
06:00 29.05
06:10 29.05
06:20 29.05
06:30 29.05
06:40 29.05
06:50 29.05
07:00 29.05
07:10 29.05
Ветер
(напр.,м/с)
Видимость Явления Солнечная радиация
(Вт/м2)
Т
(С)
Тd
(С)
f
(%)
Тe
(С)
Тes
(С)
Комфортность P
(гПа)
Po
(гПа)
Тmin
(С)
Tmax
(С)
R
(мм)
В 3.6
{5.2}
+15.7 +8.0 60 +15 +15 1015.1 907.2 +15.7 +15.4
В 3.3
{4.9}
+15.6 +7.7 59 +15 +15 1015.1 907.2 +15.7 +15.5
В 3.6
{5.1}
+15.9 +8.7 62 +15 +15 1015.2 907.3 +15.9 +15.7
В 3.0
{5.7}
+16.5 +9.0 61 +16 +16 1015.3 907.4 +16.5 +15.9
В 3.7
{6.3}
+16.9 +8.3 57 +17 +17 1015.3 907.4 +16.9 +16.5
В 2.4
{4.0}
+17.4 +8.7 57 +18 +18 1015.3 907.4 +17.4 +16.9
В 2.1
{3.9}
+17.9 +8.5 54 +18 +18 1015.3 907.4 +17.9 +17.4
В 2.6
{4.1}
+18.2 +9.0 55 +19 +19 1015.3 907.4 +18.2 +17.9
В 3.0
{4.5}
+18.7 +9.3 54 +19 +19 1015.3 907.4 +18.8 +18.2
В 3.8
{5.6}
+19.2 +9.5 53 +20 +20 1015.4 907.5 +19.2 +18.7
В 3.6
{4.9}
+19.6 +9.6 52 +21 +21 комфорт 1015.4 907.5 +19.7 +19.2
В 4.0
{5.4}
+20.6 +10.5 52 +22 +22 комфорт 1015.4 907.5 +20.6 +19.6
СВ 3.8
{5.7}
+21.0 +9.8 49 +23 +23 комфорт 1015.3 907.4 +21.0 +20.4
В 3.6
{4.4}
+21.3 +9.8 48 +23 +23 комфорт 1015.4 907.5 +21.3 +20.9
В 3.2
{3.8}
+22.1 +9.8 46 +24 +24 комфорт 1015.4 907.5 +22.0 +21.3
В 2.8
{3.8}
+22.8 +8.8 41 +24 +24 комфорт 1015.4 907.5 +22.7 +22.1
В 2.1
{3.4}
+23.2 +8.2 38 +24 +24 комфорт 1015.4 907.5 +23.3 +22.7
СВ 1.5
{3.2}
+23.9 +7.7 36 +24 +24 комфорт 1015.5 907.6 +23.9 +23.2
Ю 0.8
{1.9}
+24.4 +4.9 28 +24 +24 комфорт 1015.5 907.6 +24.3 +23.8
ЮВ 0.8
{1.8}
+24.9 +4.6 27 +24 +24 комфорт 1015.5 907.6 +24.9 +24.3
СЗ 1.4
{2.3}
+24.6 +8.2 35 +25 +25 комфорт 1015.5 907.6 +25.1 +24.5
С 1.1
{2.0}
+25.1 +6.9 31 +25 +25 комфорт 1015.5 907.6 +25.1 +24.3
СЗ 1.6
{2.7}
+24.2 +7.0 33 +24 +24 комфорт 1015.4 907.5 +25.2 +24.2
СЗ 1.6
{2.9}
+24.5 +6.0 31 +24 +24 комфорт 1015.5 907.6 +24.6 +24.1
З 2.5
{4.4}
+24.4 +5.3 29 +24 +24 комфорт 1015.6 907.7 +24.8 +24.2
З 3.2
{4.5}
+25.0 +4.5 27 +24 +24 комфорт 1015.6 907.7 +25.0 +24.4
З 3.3
{5.2}
+25.2 +4.0 25 +24 +24 комфорт 1015.6 907.7 +25.3 +24.5
З 2.9
{5.2}
+25.7 -0.8 17 +24 +24 комфорт 1015.6 907.7 +25.8 +25.0
З 3.7
{5.7}
+25.3 +2.5 23 +24 +24 комфорт 1015.7 907.8 +25.8 +25.1
З 4.4
{7.4}
+25.5 +0.3 19 +24 +24 комфорт 1015.7 907.8 +26.0 +25.2
З 3.7
{6.4}
+26.0 -1.3 16 +24 +24 комфорт 1015.8 907.9 +26.4 +25.5
ЮЗ 4.2
{6.4}
+26.2 -0.1 18 +24 +24 комфорт 1015.9 908.0 +26.4 +25.6
З 4.2
{7.3}
+26.1 +0.3 19 +24 +24 комфорт 1016.0 908.1 +26.6 +25.8
З 4.4
{7.7}
+26.6 -0.2 17 +25 +25 комфорт 1016.2 908.2 +26.8 +25.9
ЮЗ 5.1
{8.6}
+26.1 -1.7 16 +24 +24 комфорт 1016.2 908.2 +26.6 +25.8
З 4.6
{8.2}
+26.5 -3.6 14 +24 +24 комфорт 1016.1 908.2 +26.7 +26.1
ЮЗ 4.1
{7.7}
+26.5 -3.7 13 +24 +24 комфорт 1016.3 908.3 +26.8 +26.0
З 4.0
{8.5}
+26.5 -4.0 13 +24 +24 комфорт 1016.1 908.2 +27.1 +25.9
З 4.3
{8.2}
+27.4 -1.1 16 +25 +25 комфорт 1016.1 908.2 +27.3 +26.1
З 4.9
{8.2}
+26.5 -3.0 14 +24 +24 комфорт 1016.1 908.2 +27.4 +26.3
З 4.2
{8.2}
+26.5 -1.9 15 +24 +24 комфорт 1016.3 908.3 +27.4 +26.3
З 3.6
{7.3}
+27.2 -1.7 15 +25 +25 комфорт 1016.3 908.3 +27.4 +26.6
З 4.0
{8.0}
+27.3 -1.4 15 +25 +25 комфорт 1016.3 908.3 +27.9 +26.8
З 5.2
{9.0}
+27.2 -1.1 16 +25 +25 комфорт 1016.1 908.2 +27.8 +26.8
ЮЗ 3.5
{6.6}
+27.2 -1.1 16 +25 +25 комфорт 1016.1 908.2 +27.7 +26.9
З 3.4
{7.6}
+27.8 -0.3 16 +25 +25 комфорт 1016.1 908.2 +27.9 +26.8
З 3.6
{9.6}
+27.9 -0.3 16 +26 +26 жарко 1016.0 908.1 +28.4 +27.6
ЮЗ 4.5
{8.5}
+27.8 +0.1 16 +25 +25 комфорт 1016.0 908.1 +27.9 +27.0
З 3.8
{9.1}
+27.8 -0.3 16 +25 +25 комфорт 1016.0 908.1 +27.8 +26.9
ЮЗ 3.7
{6.9}
+27.6 -0.4 16 +25 +25 комфорт 1015.9 908.0 +28.2 +27.5
ЮЗ 4.5
{7.4}
+27.6 0.0 17 +25 +25 комфорт 1015.8 907.9 +28.5 +27.4
ЮЗ 4.5
{7.8}
+27.3 -0.2 17 +25 +25 комфорт 1015.8 907.9 +28.0 +27.2
З 3.4
{6.8}
+28.5 +1.6 18 +26 +26 жарко 1015.8 907.9 +28.5 +27.3
З 3.6
{7.5}
+28.0 0.0 16 +26 +26 жарко 1015.7 907.8 +28.5 +27.8
З 4.1
{7.9}
+27.8 +0.9 18 +26 +26 жарко 1015.6 907.7 +28.3 +27.6
З 4.8
{8.3}
+27.6 +0.1 17 +25 +25 комфорт 1015.6 907.7 +28.5 +27.6
З 3.2
{7.2}
+28.4 +1.6 18 +26 +26 жарко 1015.5 907.6 +28.5 +27.5
З 4.9
{8.2}
+27.3 +0.7 18 +25 +25 комфорт 1015.6 907.7 +28.4 +27.4
СЗ 5.0
{8.6}
+27.5 +6.0 25 +27 +27 жарко 1015.5 907.6 +27.7 +27.0
СЗ 5.1
{9.2}
+27.5 +1.9 19 +26 +26 жарко 1015.5 907.6 +27.6 +27.0
З 3.9
{6.8}
+27.2 +1.7 19 +25 +25 комфорт 1015.5 907.6 +27.5 +27.1
СЗ 4.2
{8.9}
+27.1 +1.4 19 +25 +25 комфорт 1015.4 907.5 +27.5 +27.0
СЗ 5.2
{9.2}
+27.1 +4.7 24 +26 +26 жарко 1015.4 907.5 +27.2 +26.8
СЗ 4.1
{7.4}
+27.2 +1.8 19 +25 +25 комфорт 1015.4 907.5 +27.3 +26.6
СЗ 4.4
{9.2}
+27.4 +1.3 18 +25 +25 комфорт 1015.4 907.5 +27.5 +26.7
СЗ 4.4
{7.2}
+26.9 +0.3 18 +25 +25 комфорт 1015.4 907.5 +27.4 +26.8
СЗ 4.6
{9.0}
+26.7 +2.5 21 +25 +25 комфорт 1015.4 907.5 +27.2 +26.6
СЗ 5.0
{9.4}
+26.9 +0.4 18 +25 +25 комфорт 1015.4 907.5 +26.9 +26.5
СЗ 4.8
{8.9}
+26.5 -0.3 17 +24 +24 комфорт 1015.4 907.5 +27.0 +26.4
СЗ 3.5
{6.0}
+26.6 +0.6 18 +25 +25 комфорт 1015.4 907.5 +26.8 +26.4
СЗ 4.3
{6.3}
+26.2 +0.4 18 +24 +24 комфорт 1015.4 907.5 +26.7 +26.2
СЗ 3.7
{6.3}
+26.4 +2.4 21 +25 +25 комфорт 1015.4 907.5 +26.4 +26.2
СЗ 4.3
{6.9}
+25.9 +3.7 24 +25 +25 комфорт 1015.3 907.4 +26.5 +25.9
С 3.6
{5.7}
+25.8 +4.2 25 +25 +25 комфорт 1015.2 907.3 +26.0 +25.8
С 1.2
{2.6}
+26.1 +4.0 24 +25 +25 комфорт 1015.0 907.2 +26.2 +25.8
СЗ 2.3
{6.2}
+25.9 +2.4 22 +25 +25 комфорт 1015.0 907.2 +26.2 +25.9
СЗ 3.9
{6.8}
+25.6 +4.8 26 +25 +25 комфорт 1015.2 907.3 +25.9 +25.6
СЗ 4.5
{6.2}
+25.5 +0.8 20 +24 +24 комфорт 1015.2 907.3 +25.6 +25.4
СЗ 3.3
{5.8}
+25.4 +0.8 20 +24 +24 комфорт 1015.2 907.3 +25.6 +25.4
СЗ 3.6
{5.4}
+25.1 +2.4 23 +24 +24 комфорт 1015.2 907.3 +25.4 +25.1
СЗ 3.3
{4.9}
+24.8 +2.1 23 +24 +24 комфорт 1015.2 907.3 +25.1 +24.8
СЗ 3.2
{4.4}
+24.6 +2.1 23 +24 +24 комфорт 1015.3 907.4 +24.8 +24.6
СЗ 3.8
{6.3}
+24.2 +3.9 27 +24 +24 комфорт 1015.3 907.4 +24.6 +24.2
СЗ 4.3
{6.1}
+23.6 +4.5 29 +23 +23 комфорт 1015.5 907.6 +24.0 +23.5
СЗ 4.2
{6.1}
+23.3 +4.4 29 +23 +23 комфорт 1015.5 907.6 +23.6 +23.3
СЗ 3.5
{5.9}
+23.3 +3.9 28 +23 +23 комфорт 1015.5 907.6 +23.4 +23.2
СЗ 3.6
{5.5}
+23.1 +3.7 28 +23 +23 комфорт 1015.5 907.6 +23.3 +23.1
СЗ 2.6
{4.4}
+22.9 +3.6 28 +23 +23 комфорт 1015.5 907.6 +23.2 +22.9
З 1.2
{2.9}
+22.4 +3.8 30 +22 +22 комфорт 1015.6 907.7 +22.9 +22.4
ЮВ 1.3
{2.0}
+22.0 +4.2 31 +22 +22 комфорт 1015.6 907.7 +22.4 +22.0
ЮВ 2.1
{2.9}
+21.6 +4.2 32 +22 +22 комфорт 1015.7 907.8 +22.0 +21.6
Ю 1.8
{2.8}
+21.5 +4.1 32 +22 +22 комфорт 1015.7 907.8 +22.1 +21.5
ЮВ 2.1
{3.0}
+21.0 +4.3 33 +22 +22 комфорт 1015.7 907.8 +21.5 +20.9
ЮВ 2.5
{3.4}
+20.8 +4.3 34 +22 +22 комфорт 1015.7 907.8 +21.0 +20.8
ЮВ 1.7
{2.6}
+20.4 +4.3 35 +22 +22 комфорт 1015.7 907.8 +20.7 +20.4
ЮВ 1.8
{2.9}
+20.4 +4.1 34 +22 +22 комфорт 1015.8 907.9 +20.5 +20.3
Ю 2.0
{3.5}
+20.7 +3.9 33 +22 +22 комфорт 1015.8 907.9 +20.7 +20.2
Ю 1.5
{2.3}
+20.4 +4.0 34 +22 +22 комфорт 1015.7 907.8 +20.7 +20.4
С 0.7
{1.5}
+20.1 +5.9 39 +22 +22 комфорт 1015.7 907.8 +20.4 +20.1
СВ 1.5
{3.2}
+19.1 +5.6 41 +20 +20 1015.6 907.7 +20.2 +19.1
В 2.3
{4.8}
+18.4 +6.3 45 +19 +19 1015.6 907.7 +19.1 +18.3
В 4.3
{6.3}
+18.7 +6.3 44 +19 +19 1015.6 907.7 +18.8 +18.3
В 3.9
{5.8}
+18.3 +6.4 46 +18 +18 1015.6 907.7 +18.7 +18.3
СВ 5.2
{6.5}
+18.0 +6.4 47 +18 +18 1015.6 907.7 +18.1 +17.9
В 4.4
{6.0}
+17.5 +6.1 47 +17 +17 1015.6 907.7 +18.0 +17.5
В 3.5
{6.1}
+17.5 +6.0 47 +17 +17 1015.6 907.7 +17.6 +17.4
В 2.8
{5.2}
+17.7 +6.0 46 +18 +18 1015.5 907.6 +17.7 +17.5
СВ 4.9
{6.3}
+17.5 +5.8 46 +17 +17 1015.6 907.7 +17.9 +17.5
СВ 5.1
{6.4}
+17.2 +6.4 49 +17 +17 1015.6 907.7 +17.5 +17.2
В 3.8
{6.5}
+17.0 +5.9 48 +17 +17 1015.5 907.6 +17.1 +16.9
В 3.2
{5.1}
+16.7 +5.8 49 +16 +16 1015.5 907.6 +17.0 +16.7
В 2.9
{4.4}
+16.6 +6.3 51 +16 +16 1015.4 907.5 +16.7 +16.6
СВ 4.8
{6.5}
+16.7 +6.3 50 +16 +16 1015.3 907.4 +16.9 +16.6
СВ 5.6
{7.2}
+16.4 +6.5 52 +15 +15 1015.3 907.4 +16.7 +16.4
В 5.6
{7.0}
+16.3 +6.3 52 +15 +15 1015.2 907.3 +16.5 +16.2
В 5.9
{8.4}
+16.4 +6.0 50 +15 +15 1015.2 907.3 +16.4 +16.2
СВ 6.9
{8.7}
+16.3 +6.4 52 +15 +15 1015.1 907.2 +16.6 +16.3
В 6.3
{7.8}
+16.3 +6.2 51 +15 +15 1015.1 907.2 +16.3 +16.2
В 6.0
{8.2}
+16.2 +6.1 51 +15 +15 1015.2 907.3 +16.3 +16.1
В 5.8
{8.0}
+16.2 +6.1 51 +15 +15 1015.2 907.3 +16.3 +16.1
СВ 7.0
{8.6}
+16.1 +6.1 51 +15 +15 1015.1 907.2 +16.2 +16.0
В 6.0
{8.4}
+15.8 +6.2 53 +15 +15 1015.1 907.2 +16.1 +15.8
В 4.2
{6.3}
+15.6 +6.0 53 +15 +15 1015.1 907.2 +15.8 +15.5
В 4.1
{6.8}
+15.5 +5.7 52 +15 +15 1015.1 907.2 +15.6 +15.3
В 4.8
{7.3}
+15.6 +5.6 51 +15 +15 1015.1 907.2 +15.6 +15.5
В 4.6
{7.3}
+15.5 +5.7 52 +15 +15 1014.9 907.1 +15.6 +15.5
В 4.5
{5.9}
+15.4 +5.6 52 +14 +14 1014.9 907.1 +15.5 +15.3
В 3.9
{7.3}
+15.3 +6.2 54 +14 +14 1014.9 907.1 +15.4 +15.2
СВ 5.4
{7.4}
+15.3 +5.9 53 +14 +14 1015.1 907.2 +15.4 +15.3
СВ 4.3
{6.7}
+15.3 +6.1 54 +14 +14 1015.1 907.2 +15.4 +15.3
В 4.0
{6.9}
+14.8 +5.7 54 +14 +14 1015.1 907.2 +15.3 +14.8
В 4.1
{6.1}
+14.9 +5.5 54 +14 +14 1015.1 907.2 +14.9 +14.8
В 4.8
{6.5}
+15.0 +5.8 54 +14 +14 1015.1 907.2 +15.0 +14.9
В 4.7
{6.8}
+15.1 +5.5 53 +14 +14 1015.1 907.2 +15.1 +15.0
В 3.6
{6.8}
+14.7 +6.2 57 +14 +14 1015.4 907.5 +14.8 +14.5
В 3.6
{5.4}
+15.0 +5.7 54 +14 +14 1015.5 907.6 +15.0 +14.7
В 5.0
{7.2}
+15.4 +6.4 55 +14 +14 1015.5 907.6 +15.4 +15.0
В 5.2
{7.2}
+15.6 +6.5 55 +14 +14 1015.5 907.6 +15.6 +15.4
СВ 6.0
{7.7}
+16.1 +5.9 51 +15 +15 1015.7 907.8 +16.1 +15.6
В 4.8
{7.2}
+16.4 +6.8 53 +16 +16 1015.8 907.9 +16.4 +16.0
В 3.3
{4.9}
+16.8 +7.1 53 +17 +17 1015.7 907.8 +16.9 +16.4
В 4.4
{6.1}
+17.4 +7.6 53 +17 +17 1015.7 907.8 +17.3 +16.8
В 4.7
{6.2}
+17.7 +6.7 49 +17 +17 1015.7 907.8 +17.7 +17.3
СВ 4.8
{5.8}
+18.0 +6.4 47 +18 +18 1015.7 907.8 +18.1 +17.7
Местоположение метеостанции Дехканабад (Сырдарьинская область, Узбекистан): широта 38.35 долгота 66.57 высота над уровнем моря 0 м.
В архиве по умолчанию представлена погода в Дехканабаде за последние 1-2 суток. Обновление информации о фактической погоде в базе происходит ежечасно! Архивные данные за месяц целиком и за предыдущие месяцы Вы можете получить, выбрав интересующий диапазон дат из раскрывающегося списка и нажав кнопку "Ввод!".
*Определитесь, кто Вы:
Внимание! Время в таблицах - местное (без учета летнего времени). Для получения всемирного времени необходимо вычесть поправку, которая равна 5 ч.
Смотрите также архив погоды на ближайших метеорологических станциях:
Партнеры нашего сайта:      
Пояснения к столбцам:
  • Ветер - указаны скорость ветра в м/с - средняя за 10 мин, порывы в срок и между сроками (в фигурных скобках) и направление, откуда дует ветер: С - северный,
  • СВ - северо-восточный, В - восточный, ЮВ - юго-восточный, Ю - южный, ЮЗ - юго-западный, З - западный, СЗ - северо-западный.
  • Видимость - горизонтальная дальность видимости в метрах или километрах. При видимости от 1 до 10 км при отсутствии осадков обычно наблюдается дымка, при ухудшении видимости до 1 км и менее - туман. В сухую погоду видимость может ухудшаться дымом, пылью или мглою.
  • Явления - указаны атмосферные явления, наблюдавшиеся в срок или в последний час перед сроком.
  • Солнечная радиация - мощность потока солнечного излучения на поверхность земли и предметов в Вт/м2.
  • T - Температура воздуха - температура, измеренная на высоте 2 м над землей.
  • Td - Температура точки росы - температура, при понижении до которой содержащийся в воздухе водяной пар достигнет насыщения.
  • f - Относительная влажность воздуха - влажноcть воздуха, измеренная на высоте 2 м над землей.
  • Te - Эффективная температура - температура, которую ощущает одетый по сезону человек в тени. Характеристика душности погоды. При расчете учитывается влияние влажности воздуха и скорости ветра на теплоощущения человека.
  • Tes - Эффективная температура на солнце - температура, которую ощущает человек, с поправкой на солнечный нагрев. Характеристика знойности погоды. Зависит от высоты солнца над горизонтом, облачности и скорости ветра. Ночью, в пасмурную погоду, а также при ветре 12 м/с и более поправка равна нулю.
  • P - Атмосферное давление - приведенное к уровню моря атмосферное давление.
  • Po - Атмосферное давление - измеренное на уровне метеостанции атмосферное давление.
  • Tmin - Минимальная температура - минимум температуры воздуха на высоте 2 м над землей.
  • Tmax - Максимальная температура - максимум температуры воздуха на высоте 2 м над землей.
  • R - Количество осадков - Количество выпавших осадков за период времени, мм. При наведении курсора мыши на число - период времени, за который выпало указанное количество осадков.